Stations météo

réclame
Mon MeteoGroup
Dunkeswell Aerodrome, Grande-Bretagne (3840): Température de l'air & dewpoint: 11.02.2019 14:00:00 - 17.02.2019 14:00:00 (GMT)Dunkeswell Aerodrome, Grande-Bretagne (3840): Température de l'air -20cm & Température de l'air -100cm: 11.02.2019 14:00:00 - 17.02.2019 14:00:00 (GMT)Dunkeswell Aerodrome, Grande-Bretagne (3840): Vitesse du vent & gusts: 11.02.2019 14:00:00 - 17.02.2019 14:00:00 (GMT)Dunkeswell Aerodrome, Grande-Bretagne (3840): Direction du vent: 11.02.2019 14:00:00 - 17.02.2019 14:00:00 (GMT)Dunkeswell Aerodrome, Grande-Bretagne (3840): reduced air pressure: 11.02.2019 14:00:00 - 17.02.2019 14:00:00 (GMT)Dunkeswell Aerodrome, Grande-Bretagne (3840): visibility: 11.02.2019 14:00:00 - 17.02.2019 14:00:00 (GMT)Dunkeswell Aerodrome, Grande-Bretagne (3840): Quantités de précipitations: 11.02.2019 14:00:00 - 17.02.2019 14:00:00 (GMT)
Date & Time tt [°C] td [°C] tt -20cm [°C] tt -100cm [°C] ff [km/h] ff [knt] fx [km/h] fx [knt] dd ppp [hPa] vv [km] rr [mm]
17.02.2019 14:00:00 10,6 7,6 - - 22 12 - - SSW 1013,0 19 0,0
17.02.2019 13:00:00 10,4 9,3 - - 21 11 - - SSW 1012,9 9 0,0
17.02.2019 12:00:00 9,8 9,6 - - 21 11 - - S 1013,1 2,5 -
17.02.2019 11:00:00 8,7 8,3 - - 22 12 - - S 1013,3 0,7 -
17.02.2019 10:00:00 8,8 8,0 - - 22 12 - - S 1012,6 7 0,0
17.02.2019 09:00:00 8,3 7,0 6,9 7,2 28 15 - - S 1012,8 10 0,0
17.02.2019 08:00:00 7,4 5,8 - - 24 13 - - S 1012,7 10 0,0
17.02.2019 07:00:00 7,4 5,4 - - 34 18 - - SSE 1012,2 11 0,0
17.02.2019 06:00:00 7,4 5,1 - - 31 17 - - S 1012,7 11 0,0
17.02.2019 05:00:00 7,4 5,0 - - 28 15 - - S 1013,6 9 0,0
17.02.2019 04:00:00 7,5 4,9 - - 28 15 - - S 1014,1 11 0,0
17.02.2019 03:00:00 7,0 5,9 - - 18 10 - - SSE 1015,3 6 0,0
17.02.2019 02:00:00 7,5 6,6 - - 28 15 - - S 1016,1 6 0,0
17.02.2019 01:00:00 7,5 7,0 - - 31 17 - - SSE 1016,8 3,0 0,2
17.02.2019 00:00:00 7,9 7,6 - - 31 17 48 26 SSE 1017,6 5 0,0
16.02.2019 23:00:00 8,5 8,3 - - 31 17 - - S 1018,3 3,0 0,0
16.02.2019 22:00:00 8,7 8,6 - - 28 15 - - S 1018,9 4,8 0,0
16.02.2019 21:00:00 8,4 8,3 - - 29 16 - - S 1019,7 0,6 0,0
16.02.2019 20:00:00 8,4 8,3 - - 21 11 - - S 1020,1 2,3 0,0
16.02.2019 19:00:00 8,3 8,2 - - 22 12 - - S 1020,5 6 0,0
16.02.2019 18:00:00 8,8 8,7 - - 24 13 - - SSW 1020,4 0,1 0,0
16.02.2019 17:00:00 9,1 9,0 - - 26 14 - - S 1020,2 - 0,0
16.02.2019 16:00:00 9,4 9,3 - - 26 14 - - S 1020,4 - 0,0
16.02.2019 15:00:00 9,7 9,5 - - 22 12 - - S 1020,8 - 0,0
16.02.2019 14:00:00 9,9 9,8 - - 21 11 - - SSW 1021,6 0,1 0,0
16.02.2019 13:00:00 9,9 9,7 - - 26 14 - - S 1022,0 - 0,0
16.02.2019 12:00:00 9,7 9,5 - - 26 14 - - SSW 1022,5 0,1 0,0
16.02.2019 11:00:00 9,7 9,5 - - 24 13 - - SSW 1022,4 0,1 0,0
16.02.2019 10:00:00 9,6 9,2 - - 21 11 - - S 1022,4 4,3 0,0
16.02.2019 09:00:00 9,3 8,8 6,7 7,0 16 9 - - SSW 1022,5 14 0,0
16.02.2019 08:00:00 9,2 8,9 - - 22 12 - - SSW 1022,3 14 0,0
16.02.2019 07:00:00 9,3 9,1 - - 18 10 - - SSW 1021,7 6 0,0
16.02.2019 06:00:00 9,4 9,3 - - 15 8 - - SW 1021,8 8 0,0
16.02.2019 05:00:00 9,3 9,2 - - 15 8 - - SSW 1021,9 1,7 0,0
16.02.2019 04:00:00 9,5 9,4 - - 16 9 - - SSW 1021,8 5 0,0
16.02.2019 03:00:00 8,9 8,7 - - 16 9 - - S 1022,0 0,1 0,0
16.02.2019 02:00:00 8,5 8,3 - - 18 10 - - SSW 1022,2 0,1 0,0
16.02.2019 01:00:00 8,1 7,8 - - 15 8 - - SSW 1022,6 0,5 0,0
16.02.2019 00:00:00 7,5 7,2 - - 15 8 - - SSW 1023,1 1,4 0,0
15.02.2019 23:00:00 8,0 7,6 - - 16 9 - - SW 1023,2 2,3 0,0
15.02.2019 22:00:00 6,5 6,0 - - 18 10 - - SSW 1023,2 3,7 0,0
15.02.2019 21:00:00 6,7 6,3 - - 21 11 - - S 1023,6 3,5 0,0
15.02.2019 20:00:00 6,2 5,9 - - 18 10 - - S 1024,0 1,8 0,0
15.02.2019 19:00:00 6,6 6,1 - - 22 12 - - S 1023,9 1,3 0,0
15.02.2019 18:00:00 6,6 5,9 - - 18 10 - - SSE 1023,9 3,4 0,0
15.02.2019 17:00:00 8,0 6,3 - - 16 9 - - SSE 1023,9 6 0,0
15.02.2019 16:00:00 10,8 6,7 - - 13 7 - - S 1023,5 14 0,0
15.02.2019 15:00:00 11,5 6,9 - - 21 11 - - S 1023,7 16 0,0
15.02.2019 14:00:00 12,0 7,0 - - 21 11 - - S 1024,2 17 0,0
15.02.2019 13:00:00 11,6 7,0 - - 22 12 - - SSW 1024,9 17 0,0
15.02.2019 12:00:00 11,0 7,6 - - 24 13 - - S 1025,7 15 0,0
15.02.2019 11:00:00 9,7 7,8 - - 24 13 - - S 1025,9 10 0,0
15.02.2019 10:00:00 8,4 8,1 - - 18 10 - - S 1026,3 5 0,2
15.02.2019 09:00:00 6,5 6,3 6,2 7,0 21 11 - - S 1026,7 1,0 0,0
15.02.2019 08:00:00 6,1 5,9 - - 22 12 - - S 1026,7 1,4 0,0
15.02.2019 07:00:00 5,6 5,4 - - 21 11 - - S 1026,6 1,8 0,0
15.02.2019 06:00:00 5,5 5,3 - - 21 11 - - S 1026,5 2,2 0,0
15.02.2019 05:00:00 5,4 5,2 - - 15 8 - - S 1026,6 2,3 0,0
15.02.2019 04:00:00 5,5 5,3 - - 16 9 - - SSE 1027,0 0,3 0,0
15.02.2019 03:00:00 4,6 4,2 - - 11 6 - - S 1027,4 2,4 0,2
15.02.2019 02:00:00 3,5 3,0 - - 9 5 - - S 1027,8 1,2 0,0
15.02.2019 01:00:00 5,0 4,4 - - 15 8 - - S 1028,0 4,0 0,0
15.02.2019 00:00:00 5,1 4,5 - - 15 8 - - SSE 1028,1 4,8 0,0
14.02.2019 23:00:00 5,0 4,0 - - 16 9 - - SSE 1028,3 5 0,0
14.02.2019 22:00:00 4,7 4,4 - - 18 10 - - SSE 1028,5 3,6 0,0
14.02.2019 21:00:00 4,1 3,6 - - 8 4 - - SSE 1029,0 1,8 0,0
14.02.2019 20:00:00 4,4 3,6 - - 15 8 - - SSE 1029,1 4,7 0,0
14.02.2019 19:00:00 4,2 3,0 - - 13 7 - - SSE 1029,2 9 0,0
14.02.2019 18:00:00 4,9 3,1 - - 11 6 - - SE 1029,0 12 0,0
14.02.2019 17:00:00 6,7 3,7 - - 11 6 - - SE 1028,9 16 0,0
14.02.2019 16:00:00 8,3 3,3 - - 16 9 - - SSE 1029,0 25 0,0
14.02.2019 15:00:00 8,8 3,0 - - 21 11 - - SSE 1029,4 24 0,0
14.02.2019 14:00:00 9,5 4,2 - - 22 12 - - SSE 1029,7 23 0,0
14.02.2019 13:00:00 9,2 4,7 - - 21 11 - - SE 1030,4 18 0,0
14.02.2019 12:00:00 9,3 6,8 - - 16 9 - - SSE 1031,1 12 0,0
14.02.2019 11:00:00 7,4 6,6 - - 16 9 - - SSE 1031,3 7 0,0
14.02.2019 10:00:00 6,4 6,2 - - 15 8 - - SSE 1031,4 3,1 0,0
14.02.2019 09:00:00 5,7 5,6 6,2 7,0 13 7 - - S 1031,6 1,5 0,0
14.02.2019 08:00:00 5,4 5,2 - - 16 9 - - S 1031,7 0,9 0,0
14.02.2019 07:00:00 5,2 5,1 - - 11 6 - - SSE 1031,1 0,1 0,0
14.02.2019 06:00:00 5,4 5,3 - - 13 7 - - SE 1031,1 - 0,0
14.02.2019 05:00:00 5,2 5,0 - - 13 7 - - SSE 1031,0 0,1 0,0
14.02.2019 04:00:00 4,2 4,0 - - 9 5 - - SSE 1031,1 0,1 0,2
14.02.2019 03:00:00 4,6 4,3 - - 9 5 - - S 1031,7 3,8 0,0
14.02.2019 02:00:00 4,6 4,3 - - 13 7 - - S 1032,0 3,7 0,0
14.02.2019 01:00:00 5,5 5,2 - - 21 11 - - SSE 1031,7 1,1 0,0
14.02.2019 00:00:00 5,7 5,4 - - 21 11 - - SSE 1032,0 2,0 0,0
13.02.2019 23:00:00 5,0 4,6 - - 16 9 - - SSE 1032,0 9 0,0
13.02.2019 22:00:00 5,3 5,0 - - 13 7 - - SSE 1032,0 2,8 0,0
13.02.2019 21:00:00 5,3 4,9 - - 16 9 - - S 1031,8 4,0 0,0
13.02.2019 20:00:00 5,3 4,8 - - 18 10 - - S 1031,4 4,6 0,0
13.02.2019 19:00:00 5,8 5,2 - - 26 14 - - S 1031,3 8 0,0
13.02.2019 18:00:00 5,7 4,9 - - 16 9 - - S 1031,5 8 0,0
13.02.2019 17:00:00 6,6 4,9 - - 18 10 - - S 1031,2 13 0,0
13.02.2019 16:00:00 8,8 5,8 - - 22 12 - - S 1030,9 18 0,0
13.02.2019 15:00:00 8,5 6,2 - - 24 13 - - S 1031,3 16 0,0
13.02.2019 14:00:00 8,8 5,8 - - 24 13 - - S 1031,6 18 0,0
13.02.2019 13:00:00 8,3 5,5 - - 28 15 - - S 1032,0 17 0,0
13.02.2019 12:00:00 8,1 6,3 - - 24 13 - - S 1032,3 15 0,0
13.02.2019 11:00:00 7,7 5,6 - - 22 12 - - S 1032,3 19 0,0
13.02.2019 10:00:00 7,3 6,2 - - 28 15 - - S 1032,0 15 0,0
13.02.2019 09:00:00 6,7 6,1 6,0 7,0 21 11 - - SSW 1032,3 13 0,0
13.02.2019 08:00:00 6,5 6,1 - - 24 13 - - S 1032,1 11 0,0
13.02.2019 07:00:00 6,3 5,9 - - 22 12 - - S 1031,9 4,9 0,0
13.02.2019 06:00:00 5,5 4,7 - - 16 9 - - S 1032,3 17 0,0
13.02.2019 05:00:00 6,0 5,1 - - 16 9 - - S 1032,4 18 0,0
13.02.2019 04:00:00 7,1 6,5 - - 21 11 - - S 1032,5 7 0,0
13.02.2019 03:00:00 7,2 4,5 - - 15 8 - - SSW 1033,1 35 0,0
13.02.2019 02:00:00 7,3 5,1 - - 16 9 - - SSW 1033,4 35 0,0
13.02.2019 01:00:00 7,3 6,6 - - 16 9 - - SSW 1033,3 18 0,0
13.02.2019 00:00:00 7,5 7,1 - - 13 7 - - SSW 1033,4 8 0,0
12.02.2019 23:00:00 7,4 7,0 - - 11 6 - - S 1033,7 4,7 0,0
12.02.2019 22:00:00 7,3 6,9 - - 9 5 - - S 1033,7 4,2 0,0
12.02.2019 21:00:00 7,4 6,8 - - 13 7 - - S 1033,8 3,4 0,0
12.02.2019 20:00:00 7,4 6,5 - - 11 6 - - S 1033,8 8 0,0
12.02.2019 19:00:00 7,4 6,1 - - 13 7 - - S 1033,7 13 0,0
12.02.2019 18:00:00 7,7 5,8 - - 13 7 - - SSW 1033,6 20 0,0
12.02.2019 17:00:00 8,1 5,9 - - 11 6 - - SW 1033,3 23 0,0
12.02.2019 16:00:00 8,3 6,3 - - 11 6 - - SSW 1033,1 18 0,0
12.02.2019 15:00:00 8,4 6,7 - - 11 6 - - SW 1033,1 19 0,0
12.02.2019 14:00:00 8,0 6,8 - - 8 4 - - SW 1033,4 13 0,0
12.02.2019 13:00:00 7,9 6,6 - - 15 8 - - SW 1033,5 16 0,0
12.02.2019 12:00:00 7,2 6,7 - - 11 6 - - SW 1034,0 11 0,0
12.02.2019 11:00:00 6,6 6,1 - - 15 8 - - SSW 1033,7 6 0,0
12.02.2019 10:00:00 6,5 6,1 - - 13 7 - - SSW 1033,4 13 0,0
12.02.2019 09:00:00 5,4 5,1 5,9 7,0 11 6 - - S 1033,4 17 0,0
12.02.2019 08:00:00 4,1 3,9 - - 13 7 - - SW 1033,6 11 0,2
12.02.2019 07:00:00 3,5 3,1 - - 15 8 - - SW 1033,2 0,2 0,0
12.02.2019 06:00:00 3,5 3,0 - - 15 8 - - SW 1033,1 9 0,0
12.02.2019 05:00:00 2,7 1,8 - - 13 7 - - SSW 1033,1 28 0,0
12.02.2019 04:00:00 2,7 1,9 - - 11 6 - - SSW 1033,1 29 0,0
12.02.2019 03:00:00 2,4 1,6 - - 9 5 - - SW 1033,5 30 0,0
12.02.2019 02:00:00 2,7 2,2 - - 11 6 - - SW 1033,6 22 0,0
12.02.2019 01:00:00 2,8 2,4 - - 11 6 - - SSW 1033,6 15 0,0
12.02.2019 00:00:00 2,1 1,7 - - 9 5 - - SSW 1033,7 9 0,0
11.02.2019 23:00:00 2,9 2,5 - - 5 3 - - SW 1033,2 17 0,0
11.02.2019 22:00:00 0,8 0,1 - - 5 3 - - S 1033,2 10 0,0
11.02.2019 21:00:00 2,8 2,2 - - 2 1 - - WSW 1032,5 17 0,0
11.02.2019 20:00:00 3,5 2,7 - - 5 3 - - W 1032,4 19 0,0
11.02.2019 19:00:00 3,3 1,4 - - 4 2 - - W 1032,0 27 0,0
11.02.2019 18:00:00 5,4 2,1 - - 5 3 - - W 1031,3 35 0,0
11.02.2019 17:00:00 7,0 2,7 - - 4 2 - - W 1030,5 40 0,0
11.02.2019 16:00:00 7,9 2,1 - - 8 4 - - WNW 1030,0 45 0,0
11.02.2019 15:00:00 7,8 1,7 - - 11 6 - - NNW 1029,2 45 0,0
11.02.2019 14:00:00 7,8 1,5 - - 16 9 - - N 1028,5 40 0,0

tt = Température de l'air
td = dewpoint
tt -20cm = Température de l'air -20cm
tt -100cm = Température de l'air -100cm
ff = Vitesse du vent
fx = gusts
dd = Direction du vent
ppp = reduced air pressure
vv = visibility
rr = Quantités de précipitations

stations d'obs. à proximité